Regional Weather Roundup
Issued by NWS Newport/Morehead, NC

Current Version | Previous Version | Text Only | Print | Product List | Glossary On
Versions: 1 2 3 4 5 6 7 8 9 10 11 12 13 14 15 16 17 18 19 20 21 22 23 24 25 26 27 28 29 30 31 32 33 34 35 36 37 38 39 40 41 42 43 44 45 46 47 48 49 50
000
ASUS42 KMHX 271625
RWRMHX
WEATHER ROUNDUP FOR EASTERN NORTH CAROLINA
NATIONAL WEATHER SERVICE NEWPORT/MOREHEAD CITY NC
1200 PM EDT TUE SEP 27 2016

NOTE: "FAIR" INDICATES FEW OR NO CLOUDS BELOW 12,000 FEET
WITH NO SIGNIFICANT WEATHER AND/OR OBSTRUCTIONS TO VISIBILITY

NCZ015>017-031-032-045>047-102-103-271700-
NORTH COAST

CITY           SKY/WX    TMP DP  RH WIND       PRES   REMARKS
EDENTON        CLOUDY    78  66  66 CALM      29.98F
ELIZABETH CITY CLOUDY    78  69  73 SW5       29.97F
KITTY HAWK     CLOUDY    81  73  77 S3        29.97F
MANTEO         CLOUDY    78  71  81 S8        29.98F

$$

NCZ045>047-081-094-103-104-271700-
CENTRAL COAST

CITY           SKY/WX    TMP DP  RH WIND       PRES   REMARKS
FRISCO         CLOUDY    80  70  71 SE6       29.97F

$$

NCZ095-097-098-100-101-271700-
SOUTHERN COAST

CITY           SKY/WX    TMP DP  RH WIND       PRES   REMARKS
BEAUFORT       MOSUNNY   82  68  62 SE7       29.96F
CEDAR ISLAND   NOT AVBL
JACKSONVILLE   PTSUNNY   81  71  71 NE9       29.95F
PINEY ISLAND   LGT RAIN N/A N/A N/A VRB3      29.96F
WILMINGTON     CLOUDY    82  70  66 NE3       29.95F


$$

NCZ011>013-027>030-043-044-078>080-089-090>093-098-271700-
COASTAL PLAIN

CITY           SKY/WX    TMP DP  RH WIND       PRES   REMARKS
AHOSKIE        CLOUDY    74  69  86 CALM      29.97F
CLINTON        CLOUDY    81  70  68 CALM      29.96F
ELIZABETHTOWN  PTSUNNY   82  68  63 CALM      29.96F
GOLDSBORO      CLOUDY    80  72  77 VRB2      29.95F
GREENVILLE     CLOUDY    79  70  73 CALM      29.98F
HAVELOCK       PTSUNNY   80  71  74 SE7       29.97F
KENANSVILLE    CLOUDY    79  68  69 CALM      29.96F
KINSTON        CLOUDY    81  68  65 CALM      29.97F
NEW BERN       CLOUDY    81  68  64 SE8       29.97F
RICHLANDS      CLOUDY    80  69  69 CALM      29.97F
ROCKY MOUNT    CLOUDY    80  70  71 CALM      29.97F
WASHINGTON     CLOUDY    77  68  72 CALM      29.97F
WHITEVILLE     NOT AVBL

$$

AMZ130-135-150-152-154-156-158-170-250-252-270-ANZ085-086-088-633-658-670-271700-
MARINE OBSERVATIONS

STATION/POSITION TIME  TEMP    WIND        PRES    WAVE   SWELL
                       AIR SEA DIR/SP/G            HT/PER HT/PER
                 (UTC) (F)     (DEG/KT/KT) (MB)    (FT/S) (FT/S)
CHESAPEAKE LIGHT NOT AVBL
64 E VA BEACH    1550   75 73  170/  8/ 10 1015.2    3/ 5   3/ 5
DUCK             1600   78 76  150/  6/  7 1014.4
2 E DUCK         1511      76                N/A     3/13   2/13
OREGON INLET     1600   75 76  200/  5/  6 1015.1
13E OREGON INLT  1530      76                N/A     3/13   3/13
HATTERAS CG      1600   79 77  120/  3/  5 1014.5
DIAMOND BUOY     1550   78 84  140/ 14/ 16 1014.5    4/ 5   2/ 7
CAPE LOOKOUT     1600   79     100/  8/  9 1014.0
BEAUFORT LAB     1600   79 76  140/  7/  9 1014.0
30 SE NEW RVR IN 1608   80 82   90/  6/  8 1014.1
30 SE NEW RVR IN 1525      82                N/A     4/ 6   2/13
27 SE WRIGHTSVLE 1608   80 81   90/  6/ 10 1014.1
5 SE WRIGHTSVLE  1508   80 80  360/  4/  8 1015.9
225 S CAPE HAT   1550   80 83  190/ 10/ 14 1013.5    6/ 7   7/ 7
41 SE CHARLESTON 1550   78 82   40/  8/ 10 1013.0    3/ 8   3/ 8

$$




USA.gov is the U.S. government's official web portal to all federal, state and local government web resources and services.